If you wish to contribute or participate in the discussions about articles you are invited to join SKYbrary as a registered user

La Gomera

From SKYbrary Wiki
GCGM
Revision as of 19:01, 28 November 2011 by Timo.Kouwenhoven (Talk | contribs)

(diff) ← Older revision | Latest revision (diff) | Newer revision → (diff)
Airport
ICAO: GCGM
Summary
Name La Gomera
Region Europe
Territory Canary Islands ES.gif
Location San Sebastián de la Gomera
Serving
Coordinates 28° 1' 50.407", -17° 12' 45.0731"
Close to Canarias Sea
Runways
Designator Length Width Surface
9/27 1500 m4,921.26 ft 30 m98.425 ft ASP
METAR
Observation GCGM 010700Z VRB06KT 9999 FEW030 22/14 Q1015 RMK R09/32003KT 280V060 ARP/VRB03KT
Station La Gomera
Date/Time 01 August 2015 07:00:00
Wind direction °
Wind speed 06 kts
Lowest cloud amount few clouds
Temperature 22°C
Dew point 14°C
Humidity 60%
QNH 1015 hPa
Weather condition n/a

WX
Tag(s) Volcanic Ash

La Gomera Airport (IATA: GMZ) is an airport located near the village of Alajeró, Spain, 34 km18.359 nm
34,000 m
111,548.557 ft
southwest by road from the Gomera island's capital city, San Sebastián de la Gomera.